Regional Weather Roundup
Issued by NWS Sterling, VA

Home | Current Version | Previous Version | Text Only | Print | Product List | Glossary On
Versions: 1 2 3 4 5 6 7 8 9 10 11 12 13 14 15 16 17 18 19 20 21 22 23 24 25 26 27 28 29 30 31 32 33 34 35 36 37 38 39 40 41 42 43 44 45 46 47 48 49 50
000
ASUS41 KLWX 021910
RWRLWX

REGIONAL WEATHER ROUNDUP
NATIONAL WEATHER SERVICE BALTIMORE MD/WASHINGTON DC
300 PM EDT THU JUL 02 2015

Note: "FAIR" indicates few or no clouds below 12,000 feet
with no significant weather and/or obstructions to visibility.
 TC=TEMPERATURE CELSIUS

 * =Non NWS site. Station does not report precipitation (e.g. rain,
    snow, etc.), thunder, or fog.

DCZ001-MDZ009-015-VAZ040>042-051-053>054-022000-
WASHINGTON METRO

CITY           SKY/WX    TMP DP  RH WIND       PRES   REMARKS
WASHINGTON NAT CLOUDY    77  65  66 E3        29.90S
DULLES         CLOUDY    72  62  71 N7        29.91S
ANDREWS AFB    CLOUDY    72  66  80 E5        29.90R
FT BELVOIR     CLOUDY    74  65  72 VRB1      29.90R
QUANTICO       CLOUDY    76  65  68 E6        29.90S
COLLEGE PARK*  CLOUDY    73  64  73 NW3       29.90S
LEESBURG*      CLOUDY    72  68  88 NW7       29.93
MANASSAS*      CLOUDY    73  64  73 N6        29.91R
GAITHERSBURG*  CLOUDY    72  63  73 CALM      29.95S

$$

MDZ006>007-011-014-022000-
BALTIMORE METRO

CITY           SKY/WX    TMP DP  RH WIND       PRES   REMARKS
BWI AIRPORT    CLOUDY    75  63  66 NE5       29.89S
MD SCIENCE CTR   N/A     75  62  64 MISG      29.90F
MARTIN STATE   CLOUDY    73  68  83 CALM      29.92R
ANNAPOLIS      CLOUDY    73  65  75 N7        29.89S
FORT MEADE*    CLOUDY    72  64  78 N6        29.92S

$$

MDZ012-015-019>023-022000-
MARYLAND EASTERN SHORE

CITY           SKY/WX    TMP DP  RH WIND       PRES   REMARKS
OCEAN CITY     CLOUDY    73  69  87 N8        29.87R
SALISBURY      CLOUDY    72  68  87 NE7       29.88R
BAY BRIDGE AP*   N/A     72  64  78 N5        29.90R
CAMBRIDGE*     CLOUDY    73  66  78 NE5       29.88S
EASTON*        RAIN      72  70  94 N8        29.93R

$$

MDZ017>025-022000-
SOUTHERN MARYLAND

CITY           SKY/WX    TMP DP  RH WIND       PRES   REMARKS
PATUXENT RIVER PTSUNNY   75  67  76 N12       29.88S
ST INIGOES     PTSUNNY   77  67  71 N8        29.87R
LEONARDTOWN*   CLOUDY    73  64  73 NE5       29.90S

$$

MDZ003>005-022000-
NORTH CENTRAL MARYLAND

CITY           SKY/WX    TMP DP  RH WIND       PRES   REMARKS
FREDERICK*     CLOUDY    72  68  88 CALM      29.94S FOG
HAGERSTOWN APT CLOUDY    75  62  64 VRB6      29.91S
WESTMINSTER*   CLOUDY    72  66  83 CALM      29.93R

$$

MDZ501>502-022000-
WESTERN MARYLAND

CITY           SKY/WX    TMP DP  RH WIND       PRES   REMARKS
OAKLAND*       CLOUDY    64  64 100 W5        30.00F
CUMBERLAND*    CLOUDY    77  61  57 S5        29.95S

$$

VAZ025>031-022000-
SHENANDOAH VALLEY

CITY           SKY/WX    TMP DP  RH WIND       PRES   REMARKS
WINCHESTER*    CLOUDY    73  66  78 CALM      29.93
FRONT ROYAL*   CLOUDY    70  66  88 CALM      29.92
LURAY*         CLOUDY    72  66  83 CALM      29.94
NEW MARKET*    CLOUDY    71  65  82 CALM      29.93
STAUNTON*      CLOUDY    73  63  70 CALM      29.97
WAYNESBORO*    CLOUDY    68  63  84 CALM      29.97

$$

WVZ021-048>050-054>055-022000-
EASTERN WEST VIRGINIA PANHANDLE

CITY           SKY/WX    TMP DP  RH WIND       PRES   REMARKS
MARTINSBURG    CLOUDY    73  64  73 CALM      29.93R
PETERSBURG*    CLOUDY    75  59  57 CALM      29.94S

$$

VAZ036>039-050-022000-
CENTRAL FOOTHILLS

CITY           SKY/WX    TMP DP  RH WIND       PRES   REMARKS
CHARLOTTESVILL CLOUDY    75  65  70 CALM      29.92R
CULPEPER*      CLOUDY    71  64  80 N5        29.92S
ORANGE*        CLOUDY    75  63  64 NW5       29.93
GORDONSVILLE*  CLOUDY    73  64  73 CALM      29.91
WARRENTON*     CLOUDY    73  67  81 NW3       29.91

$$

VAZ055>057-022000-
NORTH AND CENTRAL PIEDMONT

CITY           SKY/WX    TMP DP  RH WIND       PRES   REMARKS
FREDERICKSBRG* PTSUNNY   77  65  67 NE6       29.89
STAFFORD*      PTSUNNY   76  63  65 NE3       29.94

$$

NCZ024-NYZ072-PAZ021-071-VAZ022-071-022000-
OTHER REGIONAL OBSERVATIONS

CITY           SKY/WX    TMP DP  RH WIND       PRES   REMARKS
NEW YORK CITY  CLOUDY    76  59  55 CALM      29.91F
PHILADELPHIA   CLOUDY    77  63  61 NE6       29.89F
PITTSBURGH     CLOUDY    74  55  51 W6        29.94F
ROANOKE        CLOUDY    74  62  66 NW7       29.96R
RICHMOND       LGT RAIN  79  72  79 CALM      29.86S
RALEIGH        PTSUNNY   86  69  56 SW17      29.91F HX  90

$$

ANZ530>537-022000-
MARINE OBSERVATIONS

STATION/POSITION TIME  TEMP    WIND        PRES
                       AIR SEA DIR/SP/G
                 (UTC) (F)     (DEG/KT/KT) (MB)
THOMAS PT LIGHT  NOT AVBL
BALT KEY BRIDGE  1800   73      20/  5/  6 1012.3R
COVE POINT       1800   72      20/  9/ 13 1012.7R
LEWISETTA        1800   77 80   30/  6/  9 1011.0F
SOLOMONS ISLAND  1800      80                N/A
PINEY POINT      1800           40/  9/ 14   N/A

$$



USA.gov is the U.S. government's official web portal to all federal, state and local government web resources and services.